Time,TemperatureF,DewpointF,PressureIn,WindDirection,WindDirectionDegrees,WindSpeedMPH,WindSpeedGustMPH,Humidity,HourlyPrecipIn,Conditions,Clouds,dailyrainin,SoftwareType,DateUTC
2013-05-15 00:33:00,51.0,-99.9,-100.00,SW,215,-999.0,12.0,-999,-99.99,,,-99.99,,2013-05-15 04:33:00,
2013-05-15 00:43:00,51.0,-99.9,-100.00,SW,215,-999.0,12.0,-999,-99.99,,,-99.99,,2013-05-15 04:43:00,
2013-05-15 00:52:00,50.0,-99.9,-100.00,SW,232,3.0,7.0,-999,-99.99,,,-99.99,,2013-05-15 04:52:00,
2013-05-15 01:32:00,50.0,-99.9,-100.00,SW,232,3.0,7.0,-999,-99.99,,,-99.99,,2013-05-15 05:32:00,
2013-05-15 01:42:00,50.0,-99.9,-100.00,SW,232,3.0,7.0,-999,-99.99,,,-99.99,,2013-05-15 05:42:00,
2013-05-15 01:52:00,51.0,-99.9,-100.00,SSW,209,-999.0,-999.0,-999,-99.99,,,-99.99,,2013-05-15 05:52:00,
2013-05-15 02:32:00,51.0,-99.9,-100.00,SSW,209,-999.0,-999.0,-999,-99.99,,,-99.99,,2013-05-15 06:32:00,
2013-05-15 02:42:00,51.0,-99.9,-100.00,SSW,209,-999.0,-999.0,-999,-99.99,,,-99.99,,2013-05-15 06:42:00,
2013-05-15 02:52:00,52.0,-99.9,-100.00,South,180,-999.0,-999.0,-999,-99.99,,,-99.99,,2013-05-15 06:52:00,
2013-05-15 03:22:00,52.0,-99.9,-100.00,South,180,-999.0,-999.0,-999,-99.99,,,-99.99,,2013-05-15 07:22:00,
2013-05-15 03:32:00,52.0,-99.9,-100.00,South,180,-999.0,-999.0,-999,-99.99,,,-99.99,,2013-05-15 07:32:00,
2013-05-15 03:42:00,52.0,-99.9,-100.00,South,180,-999.0,-999.0,-999,-99.99,,,-99.99,,2013-05-15 07:42:00,
2013-05-15 03:52:00,54.0,-99.9,-100.00,SSW,210,-999.0,7.0,-999,-99.99,,,-99.99,,2013-05-15 07:52:00,
2013-05-15 04:32:00,54.0,-99.9,-100.00,SSW,210,-999.0,7.0,-999,-99.99,,,-99.99,,2013-05-15 08:32:00,
2013-05-15 04:42:00,54.0,-99.9,-100.00,SSW,210,-999.0,7.0,-999,-99.99,,,-99.99,,2013-05-15 08:42:00,
2013-05-15 04:52:00,54.0,-99.9,-100.00,SW,228,-999.0,-999.0,-999,-99.99,,,-99.99,,2013-05-15 08:52:00,
2013-05-15 05:22:00,54.0,-99.9,-100.00,SW,228,-999.0,-999.0,-999,-99.99,,,-99.99,,2013-05-15 09:22:00,
2013-05-15 05:33:00,54.0,-99.9,-100.00,SW,228,-999.0,-999.0,-999,-99.99,,,-99.99,,2013-05-15 09:33:00,
2013-05-15 05:42:00,54.0,-99.9,-100.00,SW,228,-999.0,-999.0,-999,-99.99,,,-99.99,,2013-05-15 09:42:00,
2013-05-15 05:52:00,56.0,-99.9,-100.00,SSW,192,-999.0,3.0,-999,-99.99,,,-99.99,,2013-05-15 09:52:00,
2013-05-15 06:23:00,56.0,-99.9,-100.00,SSW,192,-999.0,3.0,-999,-99.99,,,-99.99,,2013-05-15 10:23:00,
2013-05-15 06:32:00,56.0,-99.9,-100.00,SSW,192,-999.0,3.0,-999,-99.99,,,-99.99,,2013-05-15 10:32:00,
2013-05-15 06:43:00,56.0,-99.9,-100.00,SSW,192,-999.0,3.0,-999,-99.99,,,-99.99,,2013-05-15 10:43:00,
2013-05-15 07:29:00,56.0,-99.9,-100.00,SW,228,8.0,9.0,-999,-99.99,,,-99.99,,2013-05-15 11:29:00,
2013-05-15 07:41:00,56.0,-99.9,-100.00,SW,228,8.0,9.0,-999,-99.99,,,-99.99,,2013-05-15 11:41:00,
2013-05-15 07:51:00,56.0,-99.9,-100.00,SW,228,8.0,9.0,-999,-99.99,,,-99.99,,2013-05-15 11:51:00,
2013-05-15 07:52:00,55.0,-99.9,-100.00,SW,236,-999.0,9.0,-999,-99.99,,,-99.99,,2013-05-15 11:52:00,
2013-05-15 08:30:00,55.0,-99.9,-100.00,SW,236,-999.0,9.0,-999,-99.99,,,-99.99,,2013-05-15 12:30:00,
2013-05-15 08:38:00,55.0,-99.9,-100.00,SW,236,-999.0,9.0,-999,-99.99,,,-99.99,,2013-05-15 12:38:00,
2013-05-15 08:49:00,55.0,-99.9,-100.00,SW,236,-999.0,9.0,-999,-99.99,,,-99.99,,2013-05-15 12:49:00,
2013-05-15 08:52:00,58.0,-99.9,-100.00,South,175,-999.0,13.0,-999,-99.99,,,-99.99,,2013-05-15 12:52:00,
2013-05-15 09:29:00,58.0,-99.9,-100.00,South,175,-999.0,13.0,-999,-99.99,,,-99.99,,2013-05-15 13:29:00,
2013-05-15 09:38:00,58.0,-99.9,-100.00,South,175,-999.0,13.0,-999,-99.99,,,-99.99,,2013-05-15 13:38:00,
2013-05-15 09:52:00,59.0,-99.9,-100.00,SSE,163,8.0,16.0,-999,-99.99,,,-99.99,,2013-05-15 13:52:00,
2013-05-15 10:29:00,59.0,-99.9,-100.00,SSE,163,8.0,16.0,-999,-99.99,,,-99.99,,2013-05-15 14:29:00,
2013-05-15 10:52:00,60.0,-99.9,-100.00,SW,228,13.0,16.0,-999,-99.99,,,-99.99,,2013-05-15 14:52:00,
2013-05-15 11:30:00,60.0,-99.9,-100.00,SW,228,13.0,16.0,-999,-99.99,,,-99.99,,2013-05-15 15:30:00,
2013-05-15 11:42:00,60.0,-99.9,-100.00,SW,228,13.0,16.0,-999,-99.99,,,-99.99,,2013-05-15 15:42:00,
2013-05-15 11:50:00,60.0,-99.9,-100.00,SW,228,13.0,16.0,-999,-99.99,,,-99.99,,2013-05-15 15:50:00,
2013-05-15 12:41:00,59.0,-99.9,-100.00,SSE,147,5.0,14.0,-999,-99.99,,,-99.99,,2013-05-15 16:41:00,
2013-05-15 13:52:00,62.0,-99.9,-100.00,SW,215,9.0,19.0,-999,-99.99,,,-99.99,,2013-05-15 17:52:00,
2013-05-15 14:28:00,62.0,-99.9,-100.00,SW,215,9.0,19.0,-999,-99.99,,,-99.99,,2013-05-15 18:28:00,
2013-05-15 14:39:00,62.0,-99.9,-100.00,SW,215,9.0,19.0,-999,-99.99,,,-99.99,,2013-05-15 18:39:00,
2013-05-15 14:50:00,62.0,-99.9,-100.00,SW,215,9.0,19.0,-999,-99.99,,,-99.99,,2013-05-15 18:50:00,
2013-05-15 14:52:00,59.0,-99.9,-100.00,SSW,192,7.0,7.0,-999,-99.99,,,-99.99,,2013-05-15 18:52:00,
2013-05-15 15:40:00,59.0,-99.9,-100.00,SSW,192,7.0,7.0,-999,-99.99,,,-99.99,,2013-05-15 19:40:00,
2013-05-15 15:50:00,59.0,-99.9,-100.00,SSW,192,7.0,7.0,-999,-99.99,,,-99.99,,2013-05-15 19:50:00,
2013-05-15 15:52:00,59.0,-99.9,-100.00,SW,223,-999.0,13.0,-999,-99.99,,,-99.99,,2013-05-15 19:52:00,
2013-05-15 16:41:00,59.0,-99.9,-100.00,SW,223,-999.0,13.0,-999,-99.99,,,-99.99,,2013-05-15 20:41:00,
2013-05-15 16:49:00,59.0,-99.9,-100.00,SW,223,-999.0,13.0,-999,-99.99,,,-99.99,,2013-05-15 20:49:00,
2013-05-15 16:52:00,62.0,-99.9,-100.00,South,185,6.0,11.0,-999,-99.99,,,-99.99,,2013-05-15 20:52:00,
2013-05-15 17:29:00,62.0,-99.9,-100.00,South,185,6.0,11.0,-999,-99.99,,,-99.99,,2013-05-15 21:29:00,
2013-05-15 17:43:00,62.0,-99.9,-100.00,South,185,6.0,11.0,-999,-99.99,,,-99.99,,2013-05-15 21:43:00,
2013-05-15 17:52:00,65.0,-99.9,-100.00,WSW,246,10.0,13.0,-999,-99.99,,,-99.99,,2013-05-15 21:52:00,
2013-05-15 18:31:00,65.0,-99.9,-100.00,WSW,246,10.0,13.0,-999,-99.99,,,-99.99,,2013-05-15 22:31:00,
2013-05-15 18:43:00,65.0,-99.9,-100.00,WSW,246,10.0,13.0,-999,-99.99,,,-99.99,,2013-05-15 22:43:00,
2013-05-15 19:31:00,61.0,-99.9,-100.00,South,170,-999.0,6.0,-999,-99.99,,,-99.99,,2013-05-15 23:31:00,
2013-05-15 19:40:00,61.0,-99.9,-100.00,South,170,-999.0,6.0,-999,-99.99,,,-99.99,,2013-05-15 23:40:00,
2013-05-15 19:52:00,65.0,-99.9,-100.00,SW,220,-999.0,-999.0,-999,-99.99,,,-99.99,,2013-05-15 23:52:00,
2013-05-15 20:37:00,65.0,-99.9,-100.00,SW,220,-999.0,-999.0,-999,-99.99,,,-99.99,,2013-05-16 00:37:00,
2013-05-15 20:52:00,65.0,-99.9,-100.00,WSW,240,2.0,3.0,-999,-99.99,,,-99.99,,2013-05-16 00:52:00,
2013-05-15 21:31:00,65.0,-99.9,-100.00,WSW,240,2.0,3.0,-999,-99.99,,,-99.99,,2013-05-16 01:31:00,
2013-05-15 21:41:00,65.0,-99.9,-100.00,WSW,240,2.0,3.0,-999,-99.99,,,-99.99,,2013-05-16 01:41:00,
2013-05-15 21:51:00,65.0,-99.9,-100.00,WSW,240,2.0,3.0,-999,-99.99,,,-99.99,,2013-05-16 01:51:00,
2013-05-15 22:41:00,65.0,-99.9,-100.00,SW,223,-999.0,-999.0,-999,-99.99,,,-99.99,,2013-05-16 02:41:00,
2013-05-15 22:52:00,63.0,-99.9,-100.00,WSW,252,-999.0,-999.0,-999,-99.99,,,-99.99,,2013-05-16 02:52:00,
2013-05-15 23:28:00,63.0,-99.9,-100.00,WSW,252,-999.0,-999.0,-999,-99.99,,,-99.99,,2013-05-16 03:28:00,
2013-05-15 23:52:00,62.0,-99.9,-100.00,SSW,205,-999.0,-999.0,-999,-99.99,,,-99.99,,2013-05-16 03:52:00,